Franklin, PA

7:54 AM EST on November 13, 2019 (GMT -0500)
Venango Regional

Weather History for KFKL - September, 2019

Change the Weather History Date:

Wednesday, September 18, 2019

  Actual Average Record
Temperature  
Mean Temperature 60 °F -  
Max Temperature 73 °F 72 °F 93 °F (1931)
Min Temperature 48 °F 50 °F 31 °F (1937)
Degree Days  
Heating Degree Days 4    
Growing Degree Days 10 (Base 50)    
Moisture  
Dew Point 48 °F    
Average Humidity 68    
Maximum Humidity 100    
Minimum Humidity 34    
Precipitation  
Precipitation 0.00 in - - ()
Sea Level Pressure  
Sea Level Pressure 30.24 in    
Wind  
Wind Speed 6 mph (East)    
Max Wind Speed 12 mph    
Max Gust Speed -    
Visibility 9 miles    
Events      
Averages and records for this station are not official NWS values.
T = Trace of Precipitation, MM = Missing Value Source: NWS Daily Summary

Daily Weather History Graph

Daily Weather History Graph

Search for Another Location

Airport or City:

Astronomy

Sep. 18, 2019 Rise Set
Actual Time 7:02 AM EDT 7:23 PM EDT
Civil Twilight 6:34 AM EDT 7:51 PM EDT
Nautical Twilight 6:02 AM EDT 8:24 PM EDT
Astronomical Twilight 5:28 AM EDT 8:57 PM EDT
Moon 9:54 PM EDT (9/18) 11:06 AM EDT (9/18)
Length of Visible Light 13h 16m
Length of Day
12h 21m
Waning Gibbous, 82% of the Moon is Illuminated
Sep 18
Waning Gibbous
Sep 21
Last Quarter
Sep 28
New
Oct 5
First Quarter
Oct 13
Full

Hourly Weather History & Observations

Time (EDT) Temp. Dew Point Humidity Pressure Visibility Wind Dir Wind Speed Gust Speed Precip Events Conditions
12:56 AM 55.9 °F 52.0 °F 87% 30.22 in 10.0 mi ENE 6.9 mph - N/A   Clear
1:56 AM 55.9 °F 51.1 °F 84% 30.22 in 10.0 mi ENE 8.1 mph - N/A   Clear
2:56 AM 54.0 °F 51.1 °F 90% 30.22 in 10.0 mi ENE 3.5 mph - N/A   Clear
3:56 AM 54.0 °F 50.0 °F 86% 30.21 in 10.0 mi East 4.6 mph - N/A   Clear
4:56 AM 52.0 °F 48.9 °F 89% 30.22 in 10.0 mi East 6.9 mph - N/A   Clear
5:56 AM 50.0 °F 48.0 °F 93% 30.22 in 10.0 mi ENE 5.8 mph - N/A   Clear
6:17 AM 48.2 °F 48.2 °F 100% 30.24 in 1.5 mi NE 4.6 mph - N/A   Partly Cloudy
6:20 AM 48.2 °F 48.2 °F 100% 30.24 in 0.8 mi ENE 4.6 mph - N/A   Mist
6:27 AM 48.2 °F 48.2 °F 100% 30.24 in 1.5 mi ENE 4.6 mph - N/A   Partly Cloudy
11:56 AM 68.0 °F 44.1 °F 42% 30.26 in 10.0 mi ESE 9.2 mph - N/A   Clear
12:56 PM 70.0 °F 46.0 °F 42% 30.26 in 10.0 mi SE 11.5 mph - N/A   Clear
1:56 PM 72.0 °F 45.0 °F 38% 30.26 in 10.0 mi East 9.2 mph - N/A   Clear
2:56 PM 73.0 °F 45.0 °F 37% 30.25 in 10.0 mi SE 6.9 mph - N/A   Clear
3:56 PM 73.9 °F 44.1 °F 34% 30.24 in 10.0 mi East 10.4 mph - N/A   Clear
4:56 PM 72.0 °F 44.1 °F 37% 30.24 in 10.0 mi East 10.4 mph - N/A   Clear
5:56 PM 71.1 °F 45.0 °F 39% 30.25 in 10.0 mi ESE 6.9 mph - N/A   Clear
6:56 PM 68.0 °F 46.9 °F 47% 30.25 in 10.0 mi ESE 3.5 mph - N/A   Clear
7:56 PM 64.0 °F 46.9 °F 54% 30.26 in 10.0 mi ESE 3.5 mph - N/A   Clear
8:56 PM 60.1 °F 48.9 °F 67% 30.26 in 10.0 mi Calm Calm - N/A   Clear
9:56 PM 55.9 °F 51.1 °F 84% 30.27 in 10.0 mi East 3.5 mph - N/A   Clear
10:56 PM 57.0 °F 46.9 °F 69% 30.26 in 10.0 mi East 5.8 mph - N/A   Clear
11:56 PM 55.9 °F 46.0 °F 69% 30.26 in 10.0 mi ESE 5.8 mph - N/A   Clear